Location: 22
(39.7117°N, 89.5929°W)
Time: 06:45:38
(UTC-05:00)

A-11 Canister half - Pass Details

Date: 07 February 2023
Orbit: 1526 x 1682 km, 47.3° (Epoch: 01 April)

Event Time Altitude Azimuth Distance (km) Brightness Sun altitude
Exits shadow 05:24:32 23° 252° (WSW) 2,805 9.8 -18.8°
Maximum altitude 05:30:59 77° 335° (NNW) 1,565 8.9 -17.6°
Drops below altitude 10° 05:40:24 10° 62° (ENE) 3,727 11.9 -15.8°
Sets 05:43:30 0° 64° (ENE) 4,726 12.6 -15.2°
